[[{"header":{"parameterUnit":"m.s-1","parameterCategory":1,"la1":30.2991,"la2":30.254,"lo1":-89.0895,"lo2":-89.0444,"dy":0.0017,"dx":0.0017,"nx":28,"ny":28,"refTime":"2024-12-04T03:00:00:Z","depth":0,"parameterNumber":2,"parameterNumberName":"U-component_of_WINDS"},"data":[0,0,0,0,0,0,0,0,0,0,0,0,0,0,0,0,0,0,0,0,0,0,0,0,0,0,0,0,0,0,0,0,0,0,0,0,0,0,0,0,0,0,0,0,0,0,0,0,0,0,0,0,0,0,0,0,0,0,-0.7896,-0.7896,0,-0.7884,-0.7884,-0.7884,-0.7855,-0.7854,-0.7854,-0.7853,-0.7842,-0.7842,-0.7842,0,0,0,0,0,0,0,0,0,0,0,0,0,-0.7893,-0.7894,-0.7896,-0.7896,-0.7895,-0.7884,-0.7884,-0.7884,-0.7855,-0.7854,-0.7853,-0.7853,-0.7842,-0.7842,-0.7842,0,0,0,0,0,0,0,0,0,0,0,0,0,-0.7889,-0.7894,-0.7896,-0.788,-0.7878,-0.7884,-0.7884,-0.7884,-0.7855,-0.7854,-0.7853,-0.7852,-0.7842,-0.7842,-0.7842,-0.7863,0,0,-0.7844,-0.7844,0,0,0,0,0,0,0,0,-0.789,-0.7889,-0.7882,-0.7881,-0.7879,-0.787,-0.7879,-0.7877,-0.7855,-0.7864,-0.7853,-0.7852,-0.7852,-0.7851,-0.7851,-0.7863,-0.7862,-0.7844,-0.7844,-0.7844,-0.7844,0,0,0,0,0,0,0,-0.789,-0.789,-0.7891,-0.7882,-0.788,-0.7873,-0.7872,-0.7878,-0.7863,-0.7863,-0.7861,-0.786,-0.7851,-0.7851,-0.7851,-0.7862,-0.7844,-0.7844,-0.7844,-0.7844,-0.789,-0.789,0,0,0,0,0,0,-0.7892,-0.789,-0.7891,-0.7891,-0.7882,-0.7874,-0.7872,-0.7874,-0.7863,-0.786,-0.7861,-0.7859,-0.7851,-0.785,-0.785,-0.7874,-0.7844,-0.7844,-0.7845,-0.7889,-0.789,-0.7891,0,0,0,0,0,0,-0.7892,-0.7893,-0.7892,-0.789,-0.7889,-0.7875,-0.7877,-0.7874,-0.7874,-0.7861,-0.7858,-0.7864,-0.785,-0.785,-0.786,-0.7873,-0.7845,-0.7845,-0.7887,-0.7889,-0.789,-0.7922,0,0,0,0,0,0,-0.7893,-0.7893,-0.7901,-0.789,-0.7889,-0.7902,-0.7878,-0.7874,-0.7875,-0.7872,-0.7863,-0.7861,-0.7849,-0.786,-0.786,-0.7873,-0.7845,-0.7886,-0.7888,-0.789,-0.792,-0.7924,-0.7928,0,0,0,0,0,-0.7893,-0.791,-0.7901,-0.7902,-0.7899,-0.7903,-0.7902,-0.7888,-0.7876,-0.7884,-0.7875,-0.7861,-0.7871,-0.7861,-0.7862,-0.7875,-0.7885,-0.7888,-0.789,-0.7918,-0.7923,-0.7928,0,0,0,0,0,0,-0.7923,-0.7909,-0.7899,-0.7913,-0.791,-0.7898,-0.7907,-0.7895,-0.7895,-0.7892,-0.7875,-0.7873,-0.7886,-0.7881,-0.787,-0.7894,-0.7876,-0.7878,-0.7897,-0.7902,-0.7906,-0.7908,-0.7846,0,0,0,0,0,-0.7932,-0.7936,-0.7923,-0.7937,-0.7936,-0.7922,-0.7923,-0.7913,-0.7908,-0.7906,-0.7899,-0.7895,-0.7897,-0.7899,-0.7901,-0.7918,-0.7916,-0.7928,-0.7932,-0.7935,-0.7938,-0.7947,-0.7952,-0.7898,-0.7898,-0.7898,0,0,-0.7949,-0.7942,-0.7946,-0.7943,-0.7939,-0.7944,-0.7921,-0.7927,-0.7931,-0.7907,-0.7917,-0.7911,-0.7906,-0.792,-0.7925,-0.7916,-0.7952,-0.7938,-0.7941,-0.7942,-0.795,-0.7955,-0.7959,-0.7899,-0.7899,-0.7899,0,0,-0.7984,-0.7979,-0.799,-0.7986,-0.798,-0.797,-0.7973,-0.7963,-0.7958,-0.7967,-0.795,-0.7954,-0.7958,-0.7955,-0.7954,-0.7987,-0.7974,-0.7988,-0.801,-0.8019,-0.8024,-0.8027,-0.8039,-0.8044,-0.799,-0.799,-0.799,0,-0.8007,-0.8014,-0.7998,-0.8005,-0.8005,-0.7983,-0.7995,-0.7991,-0.7986,-0.7986,-0.7976,-0.798,-0.7975,-0.7988,-0.7996,-0.7996,-0.7999,-0.7989,-0.8024,-0.8028,-0.8031,-0.8042,-0.8047,-0.7992,-0.7992,-0.7992,-0.7991,0,-0.8043,-0.8048,-0.8057,-0.8053,-0.8053,-0.8062,-0.8048,-0.805,-0.8039,-0.8031,-0.804,-0.8033,-0.8033,-0.8035,-0.8024,-0.8046,-0.8041,-0.8027,-0.8009,-0.8038,-0.8049,-0.8053,-0.7995,-0.7994,-0.7993,-0.7993,0,0,-0.8098,-0.8083,-0.8087,-0.8085,-0.8075,-0.8079,-0.8087,-0.8086,-0.8089,-0.8086,-0.8092,-0.8096,-0.8084,-0.8082,-0.8071,-0.8079,-0.8106,-0.8065,-0.8064,-0.8073,-0.813,-0.8141,-0.8146,-0.8097,-0.8097,-0.8098,-0.8131,0,-0.8131,-0.8145,-0.813,-0.8146,-0.8151,-0.813,-0.8137,-0.8132,-0.8124,-0.8127,-0.8118,-0.8121,-0.8104,-0.8103,-0.811,-0.8101,-0.8117,-0.8098,-0.8103,-0.8104,-0.8106,-0.8151,-0.8163,-0.8194,-0.8134,-0.8135,-0.8136,0,-0.8172,-0.8171,-0.8188,-0.8177,-0.8178,-0.8185,-0.8183,-0.8185,-0.8179,-0.8173,-0.8171,-0.8158,-0.8165,-0.8146,-0.8156,-0.8144,-0.8145,-0.8141,-0.8142,-0.8142,-0.8122,-0.8154,-0.8203,-0.8208,-0.8142,-0.8141,-0.8141,0,-0.8212,-0.8214,-0.8224,-0.8222,-0.821,-0.8215,-0.821,-0.8203,-0.8204,-0.8202,-0.8202,-0.8201,-0.8201,-0.82,-0.8187,-0.8174,-0.8198,-0.8178,-0.8194,-0.8194,-0.8201,-0.8201,-0.8252,-0.82,-0.82,-0.82,-0.82,0,-0.8251,-0.8263,-0.8241,-0.8248,-0.826,-0.8242,-0.8255,-0.8248,-0.8242,-0.8246,-0.8228,-0.8233,-0.8214,-0.8217,-0.8206,-0.8216,-0.8216,-0.8211,-0.8209,-0.8214,-0.8214,-0.8215,-0.8213,-0.8201,-0.8201,-0.82,-0.82,0,-0.8298,-0.8284,-0.8294,-0.8281,-0.8278,-0.8288,-0.8277,-0.8282,-0.8273,-0.8279,-0.8279,-0.8265,-0.8267,-0.8253,-0.8253,-0.8246,-0.8261,-0.8254,-0.8263,-0.8262,-0.8278,-0.8277,-0.8332,-0.8338,-0.8281,-0.8282,-0.8282,0,-0.8324,-0.8333,-0.8321,-0.8322,-0.8318,-0.8321,-0.8321,-0.8304,-0.8305,-0.8299,-0.8305,-0.8306,-0.8305,-0.831,-0.8299,-0.8299,-0.8292,-0.8312,-0.8292,-0.8297,-0.8294,-0.8294,-0.8295,-0.8316,-0.8317,-0.8317,-0.8318,0,-0.8373,-0.8366,-0.8367,-0.8365,-0.8365,-0.8363,-0.836,-0.8362,-0.8344,-0.8346,-0.8348,-0.8347,-0.8347,-0.8348,-0.8345,-0.834,-0.8326,-0.8324,-0.8327,-0.8333,-0.8338,-0.8337,-0.8275,-0.8323,-0.8322,-0.8322,-0.8322,-0.8322,-0.8411,-0.8418,-0.841,-0.8411,-0.8407,-0.8404,-0.8408,-0.8399,-0.84,-0.8399,-0.8388,-0.8392,-0.8385,-0.838,-0.8376,-0.8379,-0.837,-0.8375,-0.8377,-0.8379,-0.8382,-0.8337,-0.8379,-0.8379,-0.8378,-0.8378,-0.8378,0,-0.846,-0.8454,-0.8455,-0.8451,-0.8452,-0.8437,-0.8433,-0.8435,-0.8438,-0.8433,-0.8433,-0.8435,-0.8436,-0.8425,-0.8424,-0.8428,-0.8422,-0.8429,-0.8429,-0.8428,-0.839,-0.8387,-0.8434,-0.8434,-0.8434,-0.8434,-0.8434,-0.8434,-0.8485,-0.8495,-0.8487,-0.8494,-0.8488,-0.8491,-0.849,-0.8487,-0.8483,-0.8486,-0.8486,-0.8479,-0.8471,-0.847,-0.847,-0.8466,-0.8467,-0.8477,-0.8471,-0.8436,-0.8431,-0.8426,-0.8423,-0.8477,-0.8477,-0.8509,-0.851,-0.851]},{"header":{"parameterUnit":"m.s-1","parameterCategory":1,"la1":30.2991,"la2":30.254,"lo1":-89.0895,"lo2":-89.0444,"dy":0.0017,"dx":0.0017,"nx":28,"ny":28,"refTime":"2024-12-04T03:00:00:Z","depth":0,"parameterNumber":3,"parameterNumberName":"V-component_of_WINDS"},"data":[0,0,0,0,0,0,0,0,0,0,0,0,0,0,0,0,0,0,0,0,0,0,0,0,0,0,0,0,0,0,0,0,0,0,0,0,0,0,0,0,0,0,0,0,0,0,0,0,0,0,0,0,0,0,0,0,0,0,-4.0297,-4.0298,0,-4.0385,-4.0386,-4.0387,-4.0396,-4.0395,-4.0394,-4.0393,-4.0479,-4.0482,-4.0485,0,0,0,0,0,0,0,0,0,0,0,0,0,-4.0132,-4.0135,-4.0297,-4.0298,-4.0299,-4.0385,-4.0386,-4.0387,-4.0396,-4.0395,-4.0394,-4.0393,-4.0478,-4.0482,-4.0486,0,0,0,0,0,0,0,0,0,0,0,0,0,-4.021,-4.0136,-4.0296,-4.0314,-4.0316,-4.0385,-4.0386,-4.0388,-4.0396,-4.0395,-4.0393,-4.0392,-4.0477,-4.0482,-4.0486,-4.0542,0,0,-4.0501,-4.0503,0,0,0,0,0,0,0,0,-4.0205,-4.0216,-4.031,-4.0313,-4.0315,-4.0378,-4.036,-4.0439,-4.0397,-4.0366,-4.0393,-4.0392,-4.0446,-4.0454,-4.0473,-4.0546,-4.055,-4.0501,-4.0504,-4.0506,-4.0507,0,0,0,0,0,0,0,-4.02,-4.0212,-4.0331,-4.0311,-4.0315,-4.0316,-4.0325,-4.0375,-4.0412,-4.0368,-4.0369,-4.038,-4.0448,-4.0468,-4.0475,-4.0551,-4.0501,-4.0505,-4.0508,-4.051,-4.0677,-4.0678,0,0,0,0,0,0,-4.0192,-4.0208,-4.0329,-4.0334,-4.0256,-4.032,-4.0331,-4.0359,-4.0412,-4.0419,-4.0381,-4.038,-4.0461,-4.047,-4.0478,-4.0549,-4.0506,-4.051,-4.0513,-4.0675,-4.0677,-4.0679,0,0,0,0,0,0,-4.0188,-4.0203,-4.0325,-4.0271,-4.0287,-4.0324,-4.0356,-4.0362,-4.0383,-4.0422,-4.0428,-4.0395,-4.046,-4.0471,-4.0527,-4.0552,-4.0512,-4.0517,-4.0673,-4.0676,-4.0678,-4.0689,0,0,0,0,0,0,-4.0184,-4.0201,-4.0224,-4.0272,-4.029,-4.0374,-4.0358,-4.0364,-4.0391,-4.0391,-4.0437,-4.0443,-4.046,-4.052,-4.0532,-4.0557,-4.052,-4.0671,-4.0674,-4.0677,-4.0687,-4.0692,-4.0696,0,0,0,0,0,-4.0178,-4.0222,-4.0225,-4.0239,-4.0319,-4.0375,-4.0385,-4.0405,-4.0393,-4.0416,-4.0441,-4.0442,-4.0547,-4.0526,-4.0539,-4.0566,-4.067,-4.0674,-4.0677,-4.0685,-4.0691,-4.0696,0,0,0,0,0,0,-4.0174,-4.0229,-4.0232,-4.0294,-4.033,-4.0376,-4.0405,-4.0411,-4.045,-4.0447,-4.0469,-4.0479,-4.0534,-4.0556,-4.0531,-4.0624,-4.0607,-4.0613,-4.0608,-4.0614,-4.0619,-4.0613,-4.0524,0,0,0,0,0,-4.0181,-4.0223,-4.0268,-4.0318,-4.0336,-4.0368,-4.0393,-4.0405,-4.0443,-4.0458,-4.0487,-4.0522,-4.0563,-4.059,-4.063,-4.069,-4.07,-4.0715,-4.072,-4.0723,-4.0729,-4.0763,-4.0771,-4.0691,-4.0691,-4.0691,0,0,-4.0194,-4.0229,-4.0254,-4.0318,-4.0347,-4.039,-4.038,-4.0425,-4.0457,-4.0464,-4.0519,-4.0542,-4.0582,-4.0641,-4.0668,-4.066,-4.0753,-4.0728,-4.0731,-4.0734,-4.0768,-4.0775,-4.0782,-4.0693,-4.0693,-4.0692,0,0,-4.0241,-4.0272,-4.0318,-4.0348,-4.0393,-4.0415,-4.0425,-4.0472,-4.0488,-4.0544,-4.055,-4.0587,-4.0658,-4.0687,-4.0711,-4.0771,-4.0773,-4.0783,-4.0807,-4.084,-4.0846,-4.0852,-4.0874,-4.0882,-4.0788,-4.0788,-4.0788,0,-4.0252,-4.0318,-4.034,-4.0386,-4.0414,-4.0424,-4.047,-4.0498,-4.0553,-4.0572,-4.0563,-4.0653,-4.0681,-4.0747,-4.0762,-4.0781,-4.0794,-4.0778,-4.0844,-4.085,-4.0856,-4.0877,-4.0885,-4.0789,-4.0789,-4.0789,-4.0789,0,-4.0329,-4.0375,-4.0406,-4.0462,-4.0493,-4.0539,-4.0567,-4.0596,-4.0606,-4.0628,-4.0685,-4.0719,-4.0767,-4.0783,-4.0792,-4.0851,-4.0845,-4.084,-4.0823,-4.0864,-4.0884,-4.0893,-4.0791,-4.079,-4.079,-4.079,0,0,-4.0375,-4.0445,-4.0456,-4.0482,-4.0534,-4.0569,-4.0615,-4.0663,-4.0688,-4.0726,-4.0765,-4.0825,-4.0821,-4.0849,-4.0861,-4.089,-4.0937,-4.0882,-4.0883,-4.0891,-4.1004,-4.1009,-4.1018,-4.0939,-4.094,-4.0941,-4.1001,0,-4.0429,-4.0513,-4.0535,-4.0607,-4.0649,-4.066,-4.07,-4.0736,-4.0758,-4.0796,-4.0819,-4.0862,-4.0853,-4.087,-4.0899,-4.0925,-4.096,-4.0921,-4.0975,-4.0976,-4.0965,-4.1028,-4.1033,-4.1087,-4.1009,-4.1011,-4.1012,0,-4.0503,-4.0545,-4.0621,-4.0669,-4.0687,-4.0723,-4.077,-4.0807,-4.0848,-4.0861,-4.0893,-4.0903,-4.0951,-4.0932,-4.0998,-4.0971,-4.0994,-4.101,-4.1013,-4.1019,-4.0997,-4.1037,-4.1105,-4.1114,-4.1024,-4.1023,-4.1022,0,-4.053,-4.0606,-4.0662,-4.0683,-4.074,-4.0765,-4.079,-4.0829,-4.0857,-4.0898,-4.0916,-4.0961,-4.0986,-4.102,-4.1042,-4.1025,-4.1106,-4.1088,-4.1119,-4.1118,-4.1136,-4.1134,-4.1209,-4.1149,-4.1149,-4.1149,-4.1149,0,-4.0588,-4.0634,-4.0675,-4.0709,-4.0762,-4.0786,-4.0837,-4.0861,-4.0896,-4.0935,-4.0946,-4.0982,-4.1009,-4.1048,-4.1065,-4.1118,-4.1128,-4.1141,-4.1145,-4.114,-4.1139,-4.1156,-4.1153,-4.1151,-4.1151,-4.115,-4.115,0,-4.0628,-4.0657,-4.0719,-4.0768,-4.0782,-4.0818,-4.086,-4.0893,-4.0916,-4.0965,-4.0977,-4.1012,-4.1059,-4.1085,-4.1143,-4.1154,-4.1214,-4.1215,-4.1201,-4.1203,-4.1232,-4.1229,-4.1321,-4.1335,-4.1265,-4.1265,-4.1266,0,-4.0663,-4.0699,-4.0754,-4.0781,-4.0807,-4.0851,-4.0881,-4.0906,-4.0936,-4.0986,-4.1013,-4.1062,-4.1101,-4.1176,-4.1205,-4.125,-4.1253,-4.1283,-4.126,-4.1255,-4.1255,-4.1253,-4.1257,-4.1287,-4.1287,-4.1288,-4.1288,0,-4.0723,-4.0736,-4.0779,-4.0828,-4.0864,-4.0903,-4.0941,-4.0963,-4.0994,-4.1027,-4.1077,-4.1108,-4.1169,-4.1216,-4.1264,-4.1288,-4.1293,-4.1295,-4.1305,-4.1301,-4.1291,-4.1298,-4.1212,-4.1293,-4.1292,-4.1292,-4.1292,-4.1292,-4.0762,-4.0796,-4.084,-4.0888,-4.092,-4.0956,-4.0991,-4.1019,-4.1061,-4.1114,-4.1125,-4.1177,-4.1218,-4.1282,-4.1308,-4.1348,-4.1342,-4.1356,-4.1359,-4.1363,-4.1364,-4.1285,-4.1357,-4.1356,-4.1356,-4.1356,-4.1356,0,-4.0824,-4.0853,-4.0897,-4.0952,-4.099,-4.0994,-4.1037,-4.1068,-4.1115,-4.1152,-4.1192,-4.1249,-4.1296,-4.133,-4.1377,-4.1403,-4.1407,-4.1415,-4.1413,-4.1419,-4.1366,-4.1354,-4.1411,-4.1411,-4.1411,-4.1411,-4.1411,-4.1411,-4.0861,-4.0918,-4.0936,-4.101,-4.1038,-4.1091,-4.1116,-4.1149,-4.118,-4.1244,-4.1283,-4.1306,-4.1342,-4.1392,-4.1435,-4.1444,-4.1461,-4.1469,-4.1478,-4.1428,-4.1422,-4.1417,-4.1405,-4.1472,-4.1472,-4.1527,-4.1528,-4.1528]}]]